LLB671 SLVR-SLLP

Flight info

Callsign LLB671
Flight time 0h 51m
Altitude 26000
Route SALBI UZ29 TERAX
Aircraft B722/M-SDFGHRWY/C

Departure

Time 2026-05-04 18:24
Airport Viru Viru International Airport (SLVR)

Arrival

Time 2026-05-04 19:16
Airport El Alto International Airport (SLLP)
Time Latitude Longitude Altitude Speed Heading
2026-05-04 17:36 -17.64684 -63.13999 1232 ft 0 kts 166°
2026-05-04 17:38 -17.64691 -63.13998 1232 ft 0 kts 166°
2026-05-04 17:40 -17.64702 -63.13991 1232 ft 0 kts 240°
2026-05-04 17:40 -17.64704 -63.13995 1232 ft 0 kts 238°
2026-05-04 17:41 -17.64711 -63.14006 1232 ft 0 kts 238°
2026-05-04 17:41 -17.64713 -63.14009 1232 ft 0 kts 238°
2026-05-04 17:41 -17.64711 -63.14005 1232 ft 0 kts 238°
2026-05-04 18:13 -17.64691 -63.13974 1232 ft 4 kts 238°
2026-05-04 18:14 -17.64674 -63.13952 1232 ft 4 kts 221°
2026-05-04 18:14 -17.64654 -63.13943 1231 ft 4 kts 172°
2026-05-04 18:14 -17.64646 -63.13947 1231 ft 0 kts 149°
2026-05-04 18:17 -17.64647 -63.13946 1231 ft 1 kts 149°
2026-05-04 18:17 -17.64720 -63.13900 1232 ft 12 kts 148°
2026-05-04 18:18 -17.64806 -63.13846 1232 ft 16 kts 149°
2026-05-04 18:18 -17.64884 -63.13766 1232 ft 16 kts 82°
2026-05-04 18:18 -17.64826 -63.13662 1232 ft 17 kts 56°
2026-05-04 18:18 -17.64807 -63.13553 1232 ft 16 kts 141°
2026-05-04 18:19 -17.65021 -63.13410 1233 ft 20 kts 147°
2026-05-04 18:19 -17.65145 -63.13325 1233 ft 22 kts 147°
2026-05-04 18:19 -17.65280 -63.13235 1234 ft 24 kts 147°
2026-05-04 18:20 -17.65424 -63.13137 1241 ft 25 kts 147°
2026-05-04 18:20 -17.65578 -63.13034 1246 ft 27 kts 147°
2026-05-04 18:20 -17.65740 -63.12925 1239 ft 28 kts 147°
2026-05-04 18:20 -17.65865 -63.12822 1243 ft 13 kts 113°
2026-05-04 18:21 -17.65846 -63.12733 1238 ft 13 kts 59°
2026-05-04 18:21 -17.65810 -63.12682 1235 ft 6 kts 47°
2026-05-04 18:21 -17.65790 -63.12670 1235 ft 3 kts 13°
2026-05-04 18:21 -17.65773 -63.12673 1235 ft 0 kts 327°
2026-05-04 18:23 -17.65764 -63.12680 1239 ft 9 kts 327°
2026-05-04 18:23 -17.65566 -63.12811 1240 ft 60 kts 327°
2026-05-04 18:23 -17.65072 -63.13142 1233 ft 107 kts 326°
2026-05-04 18:24 -17.64339 -63.13623 1250 ft 139 kts 334°
2026-05-04 18:24 -17.63495 -63.14159 1476 ft 149 kts 326°
2026-05-04 18:24 -17.62643 -63.14815 1809 ft 155 kts 326°
2026-05-04 18:24 -17.61753 -63.15465 2302 ft 163 kts 323°
2026-05-04 18:25 -17.60964 -63.16423 2600 ft 187 kts 305°
2026-05-04 18:25 -17.60264 -63.17635 3160 ft 200 kts 305°
2026-05-04 18:25 -17.59486 -63.18895 3752 ft 214 kts 307°
2026-05-04 18:25 -17.58604 -63.20239 4203 ft 234 kts 307°
2026-05-04 18:26 -17.57649 -63.21710 4671 ft 254 kts 306°
2026-05-04 18:26 -17.56645 -63.23283 5104 ft 254 kts 306°
2026-05-04 18:26 -17.55696 -63.24772 5483 ft 246 kts 306°
2026-05-04 18:26 -17.54726 -63.26274 5860 ft 251 kts 307°
2026-05-04 18:27 -17.53809 -63.27830 6246 ft 254 kts 296°
2026-05-04 18:27 -17.53321 -63.29619 6679 ft 259 kts 284°
2026-05-04 18:27 -17.53067 -63.31476 7119 ft 263 kts 282°
2026-05-04 18:27 -17.52806 -63.33386 7578 ft 265 kts 283°
2026-05-04 18:28 -17.52480 -63.35274 8019 ft 266 kts 283°
2026-05-04 18:28 -17.52136 -63.37207 8487 ft 270 kts 282°
2026-05-04 18:28 -17.51815 -63.39153 8958 ft 271 kts 282°
2026-05-04 18:28 -17.51495 -63.41108 9433 ft 274 kts 282°
2026-05-04 18:29 -17.51164 -63.43077 9900 ft 276 kts 282°
2026-05-04 18:29 -17.50829 -63.45072 10328 ft 279 kts 282°
2026-05-04 18:29 -17.50492 -63.47085 10770 ft 282 kts 282°
2026-05-04 18:29 -17.50150 -63.49127 11234 ft 288 kts 282°
2026-05-04 18:30 -17.49453 -63.53279 12127 ft 294 kts 282°
2026-05-04 18:30 -17.49084 -63.55462 12517 ft 313 kts 282°
2026-05-04 18:30 -17.48695 -63.57770 12911 ft 332 kts 281°
2026-05-04 18:31 -17.48286 -63.60219 13314 ft 350 kts 281°
2026-05-04 18:31 -17.47852 -63.62802 13701 ft 368 kts 281°
2026-05-04 18:31 -17.47405 -63.65455 14042 ft 386 kts 281°
2026-05-04 18:31 -17.46929 -63.68278 14382 ft 402 kts 281°
2026-05-04 18:32 -17.46434 -63.71208 14726 ft 412 kts 281°
2026-05-04 18:32 -17.45934 -63.74171 15061 ft 416 kts 281°
2026-05-04 18:32 -17.45427 -63.77169 15409 ft 419 kts 281°
2026-05-04 18:32 -17.44914 -63.80201 15763 ft 423 kts 281°
2026-05-04 18:33 -17.44400 -63.83241 16118 ft 425 kts 281°
2026-05-04 18:33 -17.43879 -63.86317 16476 ft 430 kts 281°
2026-05-04 18:33 -17.43353 -63.89416 16844 ft 437 kts 281°
2026-05-04 18:33 -17.42816 -63.92561 17216 ft 437 kts 281°
2026-05-04 18:34 -17.42281 -63.95711 17587 ft 443 kts 281°
2026-05-04 18:34 -17.41742 -63.98882 18002 ft 443 kts 281°
2026-05-04 18:34 -17.41199 -64.02074 18383 ft 449 kts 281°
2026-05-04 18:34 -17.40647 -64.05296 18744 ft 449 kts 281°
2026-05-04 18:35 -17.40094 -64.08534 19096 ft 454 kts 281°
2026-05-04 18:35 -17.39545 -64.11762 19465 ft 450 kts 281°
2026-05-04 18:35 -17.38990 -64.15005 19836 ft 450 kts 281°
2026-05-04 18:35 -17.38439 -64.18223 20150 ft 455 kts 281°
2026-05-04 18:36 -17.37879 -64.21493 20449 ft 455 kts 281°
2026-05-04 18:36 -17.37315 -64.24775 20720 ft 458 kts 281°
2026-05-04 18:36 -17.36752 -64.28052 20982 ft 458 kts 281°
2026-05-04 18:36 -17.36187 -64.31343 21248 ft 459 kts 281°
2026-05-04 18:37 -17.35629 -64.34586 21509 ft 460 kts 281°
2026-05-04 18:37 -17.35059 -64.37886 21772 ft 461 kts 280°
2026-05-04 18:37 -17.34488 -64.41196 22039 ft 464 kts 281°
2026-05-04 18:37 -17.33915 -64.44524 22313 ft 464 kts 281°
2026-05-04 18:38 -17.33339 -64.47853 22590 ft 465 kts 280°
2026-05-04 18:38 -17.32755 -64.51188 22876 ft 466 kts 281°
2026-05-04 18:38 -17.32091 -64.54517 23157 ft 468 kts 283°
2026-05-04 18:38 -17.31311 -64.57835 23443 ft 470 kts 284°
2026-05-04 18:39 -17.30539 -64.61168 23729 ft 470 kts 283°
2026-05-04 18:39 -17.29843 -64.64519 23990 ft 471 kts 282°
2026-05-04 18:39 -17.29154 -64.67869 24249 ft 472 kts 283°
2026-05-04 18:39 -17.28415 -64.71204 24515 ft 466 kts 283°
2026-05-04 18:40 -17.27678 -64.74466 24767 ft 466 kts 283°
2026-05-04 18:40 -17.26965 -64.77765 25029 ft 467 kts 282°
2026-05-04 18:40 -17.26263 -64.81074 25301 ft 461 kts 282°
2026-05-04 18:40 -17.25549 -64.84347 25520 ft 464 kts 283°
2026-05-04 18:41 -17.24818 -64.87638 25727 ft 462 kts 283°
2026-05-04 18:41 -17.24098 -64.90922 25932 ft 460 kts 282°
2026-05-04 18:41 -17.23398 -64.94158 25970 ft 457 kts 282°
2026-05-04 18:41 -17.22686 -64.97432 25973 ft 466 kts 283°
2026-05-04 18:42 -17.21960 -65.00729 25989 ft 467 kts 283°
2026-05-04 18:42 -17.21229 -65.04050 25985 ft 466 kts 283°
2026-05-04 18:42 -17.20508 -65.07339 25990 ft 466 kts 282°
2026-05-04 18:42 -17.19789 -65.10630 25964 ft 463 kts 283°
2026-05-04 18:43 -17.19077 -65.13874 25971 ft 466 kts 283°
2026-05-04 18:43 -17.18340 -65.17213 25971 ft 465 kts 283°
2026-05-04 18:43 -17.17619 -65.20484 25971 ft 468 kts 283°
2026-05-04 18:43 -17.16894 -65.23785 25986 ft 464 kts 283°
2026-05-04 18:44 -17.16171 -65.27072 25995 ft 463 kts 283°
2026-05-04 18:44 -17.15926 -65.28182 25988 ft 465 kts 283°
2026-05-04 18:44 -17.14716 -65.33657 25992 ft 464 kts 283°
2026-05-04 18:44 -17.13987 -65.36958 26003 ft 467 kts 283°
2026-05-04 18:45 -17.13502 -65.39154 26007 ft 466 kts 283°
2026-05-04 18:45 -17.12773 -65.42449 26009 ft 465 kts 283°
2026-05-04 18:45 -17.12045 -65.45735 25978 ft 462 kts 283°
2026-05-04 18:45 -17.11317 -65.49019 26000 ft 466 kts 283°
2026-05-04 18:46 -17.10587 -65.52313 26008 ft 465 kts 283°
2026-05-04 18:46 -17.09854 -65.55616 26005 ft 466 kts 283°
2026-05-04 18:46 -17.09122 -65.58910 26003 ft 464 kts 283°
2026-05-04 18:46 -17.08397 -65.62213 26020 ft 463 kts 282°
2026-05-04 18:47 -17.07690 -65.65480 26015 ft 462 kts 282°
2026-05-04 18:47 -17.06975 -65.68780 26015 ft 464 kts 282°
2026-05-04 18:47 -17.06251 -65.72077 26021 ft 468 kts 283°
2026-05-04 18:47 -17.05525 -65.75375 26042 ft 463 kts 283°
2026-05-04 18:48 -17.04815 -65.78625 26040 ft 464 kts 282°
2026-05-04 18:48 -17.04099 -65.81910 26039 ft 463 kts 283°
2026-05-04 18:48 -17.03378 -65.85194 26037 ft 465 kts 283°
2026-05-04 18:48 -17.02654 -65.88478 26054 ft 465 kts 283°
2026-05-04 18:49 -17.01930 -65.91787 26057 ft 465 kts 282°
2026-05-04 18:49 -17.01218 -65.95074 26062 ft 465 kts 283°
2026-05-04 18:49 -17.00501 -65.98375 26063 ft 464 kts 283°
2026-05-04 18:49 -16.99780 -66.01668 26071 ft 466 kts 283°
2026-05-04 18:50 -16.99056 -66.04969 26071 ft 466 kts 283°
2026-05-04 18:50 -16.98333 -66.08271 26074 ft 466 kts 283°
2026-05-04 18:50 -16.97613 -66.11571 26071 ft 465 kts 283°
2026-05-04 18:50 -16.96890 -66.14871 26078 ft 464 kts 283°
2026-05-04 18:51 -16.96179 -66.18110 26082 ft 464 kts 283°
2026-05-04 18:51 -16.95454 -66.21414 26095 ft 466 kts 283°
2026-05-04 18:51 -16.94719 -66.24761 26095 ft 469 kts 283°
2026-05-04 18:51 -16.94001 -66.28027 26101 ft 464 kts 283°
2026-05-04 18:52 -16.93279 -66.31323 26097 ft 465 kts 283°
2026-05-04 18:52 -16.92568 -66.34619 26097 ft 464 kts 282°
2026-05-04 18:52 -16.91860 -66.37914 26086 ft 467 kts 283°
2026-05-04 18:52 -16.91144 -66.41214 26085 ft 466 kts 283°
2026-05-04 18:53 -16.90421 -66.44525 26087 ft 466 kts 283°
2026-05-04 18:53 -16.89706 -66.47815 26085 ft 466 kts 283°
2026-05-04 18:53 -16.88994 -66.51105 26059 ft 462 kts 283°
2026-05-04 18:53 -16.88280 -66.54384 26056 ft 466 kts 283°
2026-05-04 18:54 -16.87558 -66.57691 26077 ft 466 kts 283°
2026-05-04 18:54 -16.86839 -66.60993 26078 ft 466 kts 283°
2026-05-04 18:54 -16.86123 -66.64278 26059 ft 464 kts 283°
2026-05-04 18:54 -16.85405 -66.67572 26062 ft 464 kts 283°
2026-05-04 18:55 -16.84688 -66.70843 26056 ft 464 kts 283°
2026-05-04 18:55 -16.83247 -66.77438 26031 ft 468 kts 283°
2026-05-04 18:55 -16.82526 -66.80735 26035 ft 463 kts 283°
2026-05-04 18:56 -16.81804 -66.84016 26033 ft 464 kts 283°
2026-05-04 18:56 -16.81082 -66.87303 26035 ft 464 kts 283°
2026-05-04 18:56 -16.80363 -66.90592 26033 ft 466 kts 283°
2026-05-04 18:56 -16.79639 -66.93882 26033 ft 466 kts 283°
2026-05-04 18:57 -16.78921 -66.97146 26046 ft 465 kts 283°
2026-05-04 18:57 -16.78200 -67.00428 26043 ft 465 kts 283°
2026-05-04 18:57 -16.77477 -67.03712 26053 ft 462 kts 283°
2026-05-04 18:57 -16.76752 -67.06999 26049 ft 466 kts 283°
2026-05-04 18:58 -16.76025 -67.10293 26052 ft 465 kts 283°
2026-05-04 18:58 -16.75296 -67.13597 26051 ft 467 kts 283°
2026-05-04 18:58 -16.74568 -67.16895 26060 ft 468 kts 283°
2026-05-04 18:58 -16.73833 -67.20214 26062 ft 467 kts 284°
2026-05-04 18:59 -16.73104 -67.23509 26059 ft 467 kts 283°
2026-05-04 18:59 -16.72373 -67.26814 26061 ft 467 kts 283°
2026-05-04 18:59 -16.71768 -67.30156 26055 ft 470 kts 276°
2026-05-04 18:59 -16.71668 -67.33515 26065 ft 469 kts 270°
2026-05-04 19:00 -16.71816 -67.36905 26064 ft 469 kts 266°
2026-05-04 19:00 -16.72100 -67.40301 26065 ft 470 kts 266°
2026-05-04 19:00 -16.72287 -67.43687 26067 ft 462 kts 269°
2026-05-04 19:00 -16.72358 -67.46942 25911 ft 437 kts 270°
2026-05-04 19:01 -16.72459 -67.50059 25580 ft 421 kts 268°
2026-05-04 19:01 -16.72626 -67.53067 25141 ft 410 kts 267°
2026-05-04 19:01 -16.72784 -67.55992 24712 ft 399 kts 268°
2026-05-04 19:01 -16.72896 -67.58857 24295 ft 391 kts 268°
2026-05-04 19:02 -16.73002 -67.61673 23887 ft 386 kts 268°
2026-05-04 19:02 -16.73129 -67.64461 23465 ft 384 kts 267°
2026-05-04 19:02 -16.73262 -67.67229 23023 ft 378 kts 267°
2026-05-04 19:02 -16.73380 -67.69935 22570 ft 370 kts 268°
2026-05-04 19:03 -16.73489 -67.72568 22140 ft 365 kts 268°
2026-05-04 19:03 -16.73604 -67.75206 21716 ft 362 kts 267°
2026-05-04 19:03 -16.73720 -67.77820 21323 ft 359 kts 267°
2026-05-04 19:03 -16.73833 -67.80418 20936 ft 357 kts 267°
2026-05-04 19:04 -16.73944 -67.83002 20536 ft 355 kts 267°
2026-05-04 19:04 -16.74054 -67.85562 20162 ft 352 kts 267°
2026-05-04 19:04 -16.74164 -67.88105 19791 ft 351 kts 267°
2026-05-04 19:04 -16.74274 -67.90646 19434 ft 349 kts 267°
2026-05-04 19:05 -16.74381 -67.93161 19114 ft 348 kts 267°
2026-05-04 19:05 -16.74486 -67.95673 18792 ft 346 kts 268°
2026-05-04 19:05 -16.74344 -67.98170 18469 ft 344 kts 279°
2026-05-04 19:05 -16.73835 -68.00585 18119 ft 337 kts 286°
2026-05-04 19:06 -16.73150 -68.02901 17758 ft 331 kts 287°
2026-05-04 19:06 -16.72520 -68.05172 17398 ft 327 kts 284°
2026-05-04 19:06 -16.71989 -68.07444 17148 ft 319 kts 283°
2026-05-04 19:06 -16.71462 -68.09670 16895 ft 314 kts 284°
2026-05-04 19:07 -16.70902 -68.11856 16642 ft 311 kts 285°
2026-05-04 19:07 -16.70340 -68.14032 16410 ft 310 kts 285°
2026-05-04 19:07 -16.69800 -68.16191 16306 ft 305 kts 285°
2026-05-04 19:07 -16.69269 -68.18328 16225 ft 304 kts 285°
2026-05-04 19:08 -16.68727 -68.20481 16138 ft 312 kts 285°
2026-05-04 19:08 -16.68176 -68.22662 16064 ft 309 kts 285°
2026-05-04 19:08 -16.67635 -68.24815 15974 ft 306 kts 285°
2026-05-04 19:08 -16.67094 -68.26968 15876 ft 305 kts 285°
2026-05-04 19:09 -16.66573 -68.29036 15748 ft 293 kts 285°
2026-05-04 19:09 -16.66064 -68.31054 15607 ft 282 kts 285°
2026-05-04 19:09 -16.65570 -68.33002 15461 ft 274 kts 284°
2026-05-04 19:09 -16.65063 -68.34876 15307 ft 262 kts 292°
2026-05-04 19:10 -16.64171 -68.36453 15185 ft 243 kts 311°
2026-05-04 19:10 -16.62952 -68.37617 15077 ft 237 kts 329°
2026-05-04 19:10 -16.61490 -68.38365 14993 ft 230 kts 345°
2026-05-04 19:10 -16.60009 -68.38648 14873 ft 206 kts 360°
2026-05-04 19:11 -16.58584 -68.38641 14812 ft 206 kts
2026-05-04 19:11 -16.57167 -68.38572 14732 ft 203 kts
2026-05-04 19:11 -16.55903 -68.38521 14665 ft 210 kts
2026-05-04 19:11 -16.54439 -68.38475 14597 ft 208 kts
2026-05-04 19:12 -16.53008 -68.38257 14478 ft 208 kts 25°
2026-05-04 19:12 -16.51071 -68.36254 14339 ft 196 kts 69°
2026-05-04 19:12 -16.50800 -68.34897 14371 ft 193 kts 88°
2026-05-04 19:13 -16.50853 -68.33510 14405 ft 192 kts 95°
2026-05-04 19:13 -16.50939 -68.32194 14412 ft 168 kts 94°
2026-05-04 19:13 -16.50967 -68.30989 14387 ft 166 kts 91°
2026-05-04 19:13 -16.51007 -68.29782 14394 ft 167 kts 94°
2026-05-04 19:14 -16.51048 -68.28578 14429 ft 165 kts 91°
2026-05-04 19:14 -16.51079 -68.27366 14290 ft 172 kts 94°
2026-05-04 19:14 -16.51124 -68.26139 14111 ft 170 kts 92°
2026-05-04 19:14 -16.51151 -68.24892 13914 ft 171 kts 94°
2026-05-04 19:15 -16.51192 -68.23669 13615 ft 172 kts 96°
2026-05-04 19:15 -16.51262 -68.22475 13382 ft 156 kts 97°
2026-05-04 19:15 -16.51274 -68.21361 13252 ft 155 kts 92°
2026-05-04 19:15 -16.51299 -68.20309 13206 ft 120 kts 92°
2026-05-04 19:16 -16.51319 -68.19686 13259 ft 56 kts 92°
2026-05-04 19:16 -16.51328 -68.19362 13280 ft 39 kts 93°
2026-05-04 19:16 -16.51346 -68.19102 13289 ft 33 kts 95°
2026-05-04 19:16 -16.51355 -68.18874 13293 ft 30 kts 91°
2026-05-04 19:17 -16.51353 -68.18672 13297 ft 26 kts 90°
2026-05-04 19:17 -16.51357 -68.18491 13301 ft 23 kts 92°
2026-05-04 19:17 -16.51335 -68.18339 13300 ft 20 kts 72°
2026-05-04 19:17 -16.51285 -68.18218 13314 ft 17 kts 59°
2026-05-04 19:18 -16.51225 -68.18136 13317 ft 10 kts 48°
2026-05-04 19:18 -16.51200 -68.18109 13319 ft 1 kts 47°
2026-05-04 19:18 -16.51199 -68.18107 13319 ft 3 kts 47°
2026-05-04 19:18 -16.51141 -68.18041 13331 ft 17 kts 47°
2026-05-04 19:19 -16.51069 -68.17960 13337 ft 14 kts 47°
2026-05-04 19:19 -16.51006 -68.17889 13338 ft 13 kts 55°
2026-05-04 19:19 -16.50993 -68.17808 13339 ft 11 kts 92°
2026-05-04 19:19 -16.51006 -68.17736 13339 ft 10 kts 118°
2026-05-04 19:20 -16.51034 -68.17676 13339 ft 8 kts 97°
2026-05-04 19:20 -16.51022 -68.17658 13338 ft 1 kts 12°
2026-05-04 19:20 -16.51020 -68.17657 13338 ft 0 kts 10°
2026-05-04 19:20 -16.51004 -68.17656 13339 ft 4 kts
2026-05-04 19:21 -16.50993 -68.17655 13339 ft 0 kts